| time (UTC) | temp F | wind direction | speed MPH | gust MPH | rain 1hr in | rain 24hr in | rain mn in | humidity % | barometer mb |
| 20260901124738 | 83 | 192 | 4.0 | 9.0 | 0.00 | 0.00 | 0.00 | 60 | 1017.7 |
| 20260901124224 | 83 | 137 | 5.0 | 9.0 | 0.00 | 0.00 | 0.00 | 61 | 1017.7 |
| 20260901123746 | 83 | 85 | 2.0 | 6.0 | 0.00 | 0.00 | 0.00 | 59 | 1017.7 |
| 20260901123311 | 82 | 188 | 3.0 | 5.0 | 0.00 | 0.00 | 0.00 | 62 | 1017.8 |
| 20260901122759 | 81 | 234 | 0.0 | 11.0 | 0.00 | 0.00 | 0.00 | 62 | 1017.8 |
| 20260901122245 | 81 | 153 | 6.0 | 11.0 | 0.00 | 0.00 | 0.00 | 62 | 1017.9 |
| 20260901121747 | 81 | 117 | 4.0 | 7.0 | 0.00 | 0.00 | 0.00 | 64 | 1018.0 |
| 20260901121245 | 82 | 82 | 3.0 | 8.0 | 0.00 | 0.00 | 0.00 | 62 | 1018.0 |
| 20260901120742 | 82 | 80 | 2.0 | 11.0 | 0.00 | 0.00 | 0.00 | 62 | 1018.0 |
| 20260901120308 | 82 | 127 | 8.0 | 11.0 | 0.00 | 0.00 | 0.00 | 62 | 1018.1 |
| 20260901115739 | 82 | 196 | 2.0 | 6.0 | 0.00 | 0.00 | 0.00 | 61 | 1018.1 |
| 20260901115248 | 81 | 139 | 3.0 | 10.0 | 0.00 | 0.00 | 0.00 | 62 | 1018.1 |
| 20260901114749 | 81 | 169 | 7.0 | 10.0 | 0.00 | 0.00 | 0.00 | 64 | 1018.1 |
| 20260901114229 | 81 | 145 | 4.0 | 7.0 | 0.00 | 0.00 | 0.00 | 64 | 1018.1 |
| 20260901113809 | 80 | 146 | 2.0 | 8.0 | 0.00 | 0.00 | 0.00 | 63 | 1018.2 |
| 20260901113247 | 80 | 156 | 2.0 | 7.0 | 0.00 | 0.00 | 0.00 | 63 | 1018.1 |
| 20260901112758 | 81 | 192 | 1.0 | 4.0 | 0.00 | 0.00 | 0.00 | 61 | 1018.3 |
| 20260901112244 | 82 | 212 | 2.0 | 7.0 | 0.00 | 0.00 | 0.00 | 62 | 1018.2 |
| 20260901111736 | 82 | 150 | 4.0 | 9.0 | 0.00 | 0.00 | 0.00 | 62 | 1018.2 |
| 20260901111228 | 81 | 138 | 5.0 | 10.0 | 0.00 | 0.00 | 0.00 | 64 | 1018.2 |
| 20260901110745 | 81 | 121 | 4.0 | 11.0 | 0.00 | 0.00 | 0.00 | 64 | 1018.2 |
| 20260901110238 | 81 | 119 | 5.0 | 11.0 | 0.00 | 0.00 | 0.00 | 60 | 1018.2 |
| 20260901105737 | 82 | 228 | 1.0 | 9.0 | 0.00 | 0.00 | 0.00 | 63 | 1018.2 |
| 20260901105228 | 82 | 181 | 6.0 | 9.0 | 0.00 | 0.00 | 0.00 | 61 | 1018.2 |
| 20260901104737 | 80 | 180 | 1.0 | 6.0 | 0.00 | 0.00 | 0.00 | 70 | 1018.2 |
| 20260901104238 | 80 | 97 | 2.0 | 6.0 | 0.00 | 0.00 | 0.00 | 68 | 1018.3 |
| 20260901103737 | 81 | 32 | 3.0 | 6.0 | 0.00 | 0.00 | 0.00 | 68 | 1018.3 |
| 20260901103229 | 80 | 194 | 1.0 | 7.0 | 0.00 | 0.00 | 0.00 | 71 | 1018.3 |
| 20260901102756 | 79 | 133 | 3.0 | 7.0 | 0.00 | 0.00 | 0.00 | 74 | 1018.4 |
| 20260901102232 | 78 | 108 | 2.0 | 5.0 | 0.00 | 0.00 | 0.00 | 73 | 1018.5 |
| 20260901101729 | 78 | 25 | 2.0 | 5.0 | 0.00 | 0.00 | 0.00 | 73 | 1018.4 |
| 20260901101224 | 77 | 30 | 3.0 | 5.0 | 0.00 | 0.00 | 0.00 | 73 | 1018.4 |
| 20260901100735 | 77 | 26 | 2.0 | 5.0 | 0.00 | 0.00 | 0.00 | 73 | 1018.6 |
| 20260901100224 | 78 | 57 | 2.0 | 3.0 | 0.00 | 0.00 | 0.00 | 73 | 1018.6 |
| 20260901095747 | 77 | 82 | 0.0 | 6.0 | 0.00 | 0.00 | 0.00 | 73 | 1018.6 |
| 20260901095238 | 77 | 55 | 3.0 | 6.0 | 0.00 | 0.00 | 0.00 | 73 | 1018.6 |
| 20260901094740 | 77 | 109 | 1.0 | 8.0 | 0.00 | 0.00 | 0.00 | 74 | 1018.6 |
| 20260901094237 | 78 | 91 | 5.0 | 8.0 | 0.00 | 0.00 | 0.00 | 73 | 1018.7 |
| 20260901093802 | 78 | 131 | 0.0 | 7.0 | 0.00 | 0.00 | 0.00 | 72 | 1018.6 |
| 20260901093252 | 78 | 113 | 4.0 | 10.0 | 0.00 | 0.00 | 0.00 | 73 | 1018.6 |
| 20260901092800 | 78 | 138 | 6.0 | 10.0 | 0.00 | 0.00 | 0.00 | 74 | 1018.6 |
| 20260901092239 | 77 | 150 | 7.0 | 12.0 | 0.00 | 0.00 | 0.00 | 73 | 1018.6 |
| 20260901091745 | 77 | 153 | 6.0 | 14.0 | 0.00 | 0.00 | 0.00 | 74 | 1018.7 |
| 20260901091234 | 76 | 138 | 3.0 | 9.0 | 0.00 | 0.00 | 0.00 | 74 | 1018.6 |
| 20260901090731 | 76 | 360 | 4.0 | 10.0 | 0.00 | 0.00 | 0.00 | 74 | 1018.6 |
| 20260901090239 | 77 | 115 | 5.0 | 10.0 | 0.00 | 0.00 | 0.00 | 73 | 1018.5 |
| 20260901085737 | 76 | 53 | 2.0 | 4.0 | 0.00 | 0.00 | 0.00 | 72 | 1018.5 |
| 20260901085229 | 76 | 76 | 3.0 | 8.0 | 0.00 | 0.00 | 0.00 | 70 | 1018.5 |
| 20260901084738 | 75 | 23 | 3.0 | 8.0 | 0.00 | 0.00 | 0.00 | 68 | 1018.4 |
| 20260901084228 | 75 | 56 | 1.0 | 3.0 | 0.00 | 0.00 | 0.00 | 67 | 1018.5 |
| 20260901083808 | 75 | 13 | 1.0 | 4.0 | 0.00 | 0.00 | 0.00 | 68 | 1018.5 |
| 20260901083240 | 75 | 22 | 1.0 | 4.0 | 0.00 | 0.00 | 0.00 | 67 | 1018.5 |
| 20260901082744 | 75 | 42 | 1.0 | 8.0 | 0.00 | 0.00 | 0.00 | 66 | 1018.3 |
| 20260901082242 | 75 | 26 | 5.0 | 8.0 | 0.00 | 0.00 | 0.00 | 65 | 1018.4 |
| 20260901081755 | 75 | 340 | 4.0 | 10.0 | 0.00 | 0.00 | 0.00 | 66 | 1018.3 |
| 20260901081235 | 75 | 355 | 5.0 | 10.0 | 0.00 | 0.00 | 0.00 | 65 | 1018.3 |
| 20260901080741 | 75 | 36 | 3.0 | 8.0 | 0.00 | 0.00 | 0.00 | 63 | 1018.3 |
| 20260901080241 | 75 | 346 | 1.0 | 4.0 | 0.00 | 0.00 | 0.00 | 67 | 1018.2 |
| 20260901075740 | 74 | 27 | 1.0 | 3.0 | 0.00 | 0.00 | 0.00 | 65 | 1018.2 |
| 20260901075252 | 74 | 360 | 1.0 | 4.0 | 0.00 | 0.00 | 0.00 | 66 | 1018.1 |
| 20260901074804 | 74 | 348 | 2.0 | 6.0 | 0.00 | 0.00 | 0.00 | 66 | 1018.1 |
| 20260901074306 | 74 | 27 | 3.0 | 5.0 | 0.00 | 0.00 | 0.00 | 67 | 1018.1 |
| 20260901073726 | 73 | 10 | 3.0 | 4.0 | 0.00 | 0.00 | 0.00 | 69 | 1017.9 |
| 20260901073242 | 73 | 12 | 2.0 | 5.0 | 0.00 | 0.00 | 0.00 | 67 | 1018.0 |
| 20260901072741 | 73 | 13 | 3.0 | 5.0 | 0.00 | 0.00 | 0.00 | 68 | 1017.9 |
| 20260901072225 | 73 | 42 | 2.0 | 5.0 | 0.00 | 0.00 | 0.00 | 68 | 1017.9 |
| 20260901071801 | 73 | 28 | 2.0 | 5.0 | 0.00 | 0.00 | 0.00 | 67 | 1017.9 |
| 20260901071249 | 73 | 32 | 3.0 | 5.0 | 0.00 | 0.00 | 0.00 | 66 | 1017.8 |
| 20260901070739 | 74 | 33 | 2.0 | 5.0 | 0.00 | 0.00 | 0.00 | 65 | 1018.0 |
| 20260901070229 | 74 | 67 | 2.0 | 5.0 | 0.00 | 0.00 | 0.00 | 64 | 1017.9 |
| 20260901065748 | 74 | 43 | 2.0 | 3.0 | 0.00 | 0.00 | 0.00 | 64 | 1017.9 |
| 20260901065240 | 74 | 260 | 0.0 | 3.0 | 0.00 | 0.00 | 0.00 | 65 | 1017.9 |
| 20260901064740 | 73 | 68 | 2.0 | 6.0 | 0.00 | 0.00 | 0.00 | 64 | 1017.7 |
| 20260901064247 | 73 | 98 | 2.0 | 6.0 | 0.00 | 0.00 | 0.00 | 63 | 1017.7 |
| 20260901063734 | 73 | 355 | 2.0 | 6.0 | 0.00 | 0.00 | 0.00 | 63 | 1017.7 |
| 20260901063226 | 72 | 24 | 1.0 | 5.0 | 0.00 | 0.00 | 0.00 | 63 | 1017.7 |
| 20260901062724 | 72 | 85 | 2.0 | 5.0 | 0.00 | 0.00 | 0.00 | 60 | 1017.6 |
| 20260901062240 | 71 | 25 | 3.0 | 6.0 | 0.00 | 0.00 | 0.00 | 61 | 1017.6 |
| 20260901061740 | 71 | 21 | 3.0 | 6.0 | 0.00 | 0.00 | 0.00 | 66 | 1017.4 |
| 20260901061251 | 71 | 21 | 1.0 | 4.0 | 0.00 | 0.00 | 0.00 | 65 | 1017.4 |
| 20260901060741 | 71 | 5 | 1.0 | 2.0 | 0.00 | 0.00 | 0.00 | 67 | 1017.3 |
| 20260901060253 | 70 | 5 | 0.0 | 6.0 | 0.00 | 0.00 | 0.00 | 63 | 1017.1 |
| 20260901055742 | 70 | 5 | 3.0 | 6.0 | 0.00 | 0.00 | 0.00 | 62 | 1017.0 |
| 20260901055241 | 69 | 22 | 3.0 | 8.0 | 0.00 | 0.00 | 0.00 | 63 | 1017.0 |
| 20260901054748 | 68 | 38 | 3.0 | 8.0 | 0.00 | 0.00 | 0.00 | 62 | 1017.0 |
| 20260901054236 | 67 | 360 | 3.0 | 5.0 | 0.00 | 0.00 | 0.00 | 66 | 1016.9 |
| 20260901053731 | 66 | 360 | 4.0 | 6.0 | 0.00 | 0.00 | 0.00 | 67 | 1016.9 |
| 20260901053302 | 65 | 9 | 4.0 | 6.0 | 0.00 | 0.00 | 0.00 | 68 | 1016.7 |
| 20260901052724 | 64 | 36 | 3.0 | 5.0 | 0.00 | 0.00 | 0.00 | 69 | 1016.7 |
| 20260901052250 | 64 | 30 | 3.0 | 5.0 | 0.00 | 0.00 | 0.00 | 70 | 1016.7 |
| 20260901051800 | 64 | 17 | 3.0 | 4.0 | 0.00 | 0.00 | 0.00 | 71 | 1016.6 |
| 20260901051248 | 64 | 19 | 2.0 | 5.0 | 0.00 | 0.00 | 0.00 | 71 | 1016.6 |
| 20260901050739 | 63 | 14 | 3.0 | 5.0 | 0.00 | 0.00 | 0.00 | 71 | 1016.5 |
| 20260901050234 | 63 | 18 | 3.0 | 5.0 | 0.00 | 0.00 | 0.00 | 73 | 1016.5 |
| 20260901045731 | 63 | 5 | 3.0 | 5.0 | 0.00 | 0.00 | 0.00 | 72 | 1016.4 |
| 20260901045229 | 63 | 18 | 1.0 | 3.0 | 0.00 | 0.00 | 0.00 | 72 | 1016.3 |
| 20260901044725 | 63 | 17 | 1.0 | 2.0 | 0.00 | 0.00 | 0.00 | 71 | 1016.3 |
| 20260901044301 | 64 | 17 | 1.0 | 4.0 | 0.00 | 0.00 | 0.00 | 70 | 1016.1 |
| 20260901043740 | 64 | 27 | 3.0 | 5.0 | 0.00 | 0.00 | 0.00 | 69 | 1016.1 |
| 20260901043244 | 64 | 21 | 2.0 | 5.0 | 0.00 | 0.00 | 0.00 | 70 | 1016.1 |
| 20260901042725 | 65 | 348 | 1.0 | 4.0 | 0.00 | 0.00 | 0.00 | 68 | 1016.0 |
| 20260901042240 | 66 | 340 | 0.0 | 2.0 | 0.00 | 0.00 | 0.00 | 67 | 1015.8 |
| 20260901041748 | 66 | 340 | 1.0 | 3.0 | 0.00 | 0.00 | 0.00 | 66 | 1015.9 |
| 20260901041239 | 68 | 337 | 1.0 | 3.0 | 0.00 | 0.00 | 0.00 | 62 | 1015.8 |
| 20260901040751 | 68 | 30 | 0.0 | 4.0 | 0.00 | 0.00 | 0.00 | 61 | 1015.7 |
| 20260901040238 | 69 | 30 | 2.0 | 5.0 | 0.00 | 0.00 | 0.00 | 58 | 1015.8 |
| 20260901035734 | 69 | 18 | 4.0 | 5.0 | 0.00 | 0.00 | 0.00 | 57 | 1015.6 |
| 20260901035237 | 70 | 24 | 2.0 | 5.0 | 0.00 | 0.00 | 0.00 | 56 | 1015.5 |
| 20260901034752 | 70 | 32 | 3.0 | 5.0 | 0.00 | 0.00 | 0.00 | 55 | 1015.4 |
| 20260901034241 | 71 | 49 | 1.0 | 11.0 | 0.00 | 0.00 | 0.00 | 55 | 1015.3 |
| 20260901033752 | 71 | 22 | 5.0 | 11.0 | 0.00 | 0.00 | 0.00 | 53 | 1015.3 |
| 20260901033257 | 71 | 349 | 5.0 | 10.0 | 0.00 | 0.00 | 0.00 | 53 | 1015.3 |
| 20260901032725 | 72 | 47 | 5.0 | 13.0 | 0.00 | 0.00 | 0.00 | 52 | 1015.2 |
| 20260901032248 | 72 | 63 | 8.0 | 13.0 | 0.00 | 0.00 | 0.00 | 53 | 1015.1 |
| 20260901031743 | 71 | 12 | 7.0 | 12.0 | 0.00 | 0.00 | 0.00 | 53 | 1014.9 |
| 20260901031311 | 71 | 341 | 7.0 | 15.0 | 0.00 | 0.00 | 0.00 | 53 | 1014.8 |
| 20260901030740 | 71 | 5 | 10.0 | 15.0 | 0.00 | 0.00 | 0.00 | 54 | 1015.0 |
| 20260901030240 | 72 | 32 | 8.0 | 13.0 | 0.00 | 0.00 | 0.00 | 54 | 1015.0 |
| 20260901025745 | 72 | 63 | 9.0 | 15.0 | 0.00 | 0.00 | 0.00 | 53 | 1015.0 |
| 20260901025226 | 71 | 17 | 9.0 | 15.0 | 0.00 | 0.00 | 0.00 | 55 | 1015.0 |
| 20260901024739 | 70 | 35 | 9.0 | 15.0 | 0.00 | 0.00 | 0.00 | 57 | 1015.0 |
| 20260901024248 | 68 | 44 | 8.0 | 14.0 | 0.00 | 0.00 | 0.00 | 61 | 1015.1 |
| 20260901023740 | 65 | 30 | 5.0 | 11.0 | 0.00 | 0.00 | 0.00 | 68 | 1015.0 |
| 20260901023239 | 65 | 355 | 5.0 | 11.0 | 0.00 | 0.00 | 0.00 | 73 | 1015.0 |
| 20260901022749 | 64 | 355 | 4.0 | 10.0 | 0.00 | 0.00 | 0.00 | 75 | 1015.1 |
| 20260901022240 | 64 | 27 | 0.0 | 4.0 | 0.00 | 0.00 | 0.00 | 76 | 1015.2 |
| 20260901021754 | 65 | 61 | 0.0 | 3.0 | 0.00 | 0.00 | 0.00 | 76 | 1015.3 |
| 20260901021258 | 65 | 39 | 0.0 | 2.0 | 0.00 | 0.00 | 0.00 | 74 | 1015.2 |
| 20260901020744 | 65 | 290 | 1.0 | 3.0 | 0.00 | 0.00 | 0.00 | 73 | 1015.1 |
| 20260901020248 | 66 | 290 | 1.0 | 3.0 | 0.00 | 0.00 | 0.00 | 72 | 1015.0 |
| 20260901015802 | 66 | 144 | 1.0 | 3.0 | 0.00 | 0.00 | 0.00 | 73 | 1015.0 |
| 20260901015246 | 67 | 232 | 0.0 | 2.0 | 0.00 | 0.00 | 0.00 | 71 | 1015.2 |
| 20260901014733 | 68 | 232 | 1.0 | 2.0 | 0.00 | 0.00 | 0.00 | 69 | 1015.2 |
| 20260901014226 | 69 | 232 | 1.0 | 3.0 | 0.00 | 0.00 | 0.00 | 66 | 1015.0 |
| 20260901013748 | 71 | 291 | 2.0 | 3.0 | 0.00 | 0.00 | 0.00 | 65 | 1015.1 |
| 20260901013238 | 72 | 17 | 1.0 | 5.0 | 0.00 | 0.00 | 0.00 | 60 | 1015.1 |
| 20260901012743 | 72 | 347 | 3.0 | 10.0 | 0.00 | 0.00 | 0.00 | 56 | 1015.1 |
| 20260901012224 | 73 | 355 | 4.0 | 10.0 | 0.00 | 0.00 | 0.00 | 54 | 1015.0 |
| 20260901011742 | 73 | 27 | 6.0 | 9.0 | 0.00 | 0.00 | 0.00 | 55 | 1015.2 |
| 20260901011248 | 72 | 5 | 5.0 | 12.0 | 0.00 | 0.00 | 0.00 | 55 | 1015.0 |
| 20260901010734 | 72 | 22 | 6.0 | 12.0 | 0.00 | 0.00 | 0.00 | 56 | 1015.0 |
| 20260901010234 | 72 | 14 | 5.0 | 10.0 | 0.00 | 0.00 | 0.00 | 58 | 1015.0 |
| 20260901005725 | 72 | 355 | 6.0 | 9.0 | 0.00 | 0.00 | 0.00 | 60 | 1015.0 |
| 20260901005226 | 72 | 32 | 4.0 | 8.0 | 0.00 | 0.00 | 0.00 | 61 | 1014.9 |
| 20260901004739 | 72 | 5 | 3.0 | 8.0 | 0.00 | 0.00 | 0.00 | 60 | 1014.9 |
| 20260901004248 | 72 | 329 | 4.0 | 10.0 | 0.00 | 0.00 | 0.00 | 60 | 1014.9 |
| 20260901003739 | 72 | 19 | 6.0 | 10.0 | 0.00 | 0.00 | 0.00 | 61 | 1014.9 |
| 20260901003247 | 72 | 11 | 6.0 | 9.0 | 0.00 | 0.00 | 0.00 | 62 | 1014.9 |
| 20260901002735 | 73 | 13 | 5.0 | 10.0 | 0.00 | 0.00 | 0.00 | 62 | 1014.8 |
| 20260901002228 | 73 | 345 | 7.0 | 10.0 | 0.00 | 0.00 | 0.00 | 63 | 1014.9 |
| 20260901001811 | 72 | 360 | 6.0 | 10.0 | 0.00 | 0.00 | 0.00 | 63 | 1014.9 |
| 20260901001239 | 72 | 355 | 5.0 | 13.0 | 0.00 | 0.00 | 0.00 | 66 | 1015.0 |
| 20260901000740 | 72 | 11 | 6.0 | 13.0 | 0.00 | 0.00 | 0.00 | 67 | 1015.0 |
| 20260901000251 | 71 | 16 | 8.0 | 11.0 | 0.00 | 0.00 | 0.00 | 69 | 1014.9 |
| 20260831235747 | 70 | 15 | 5.0 | 13.0 | 0.00 | 0.00 | 0.00 | 73 | 1014.9 |
| 20260831235257 | 69 | 25 | 6.0 | 13.0 | 0.00 | 0.00 | 0.00 | 77 | 1014.9 |
| 20260831234729 | 69 | 334 | 3.0 | 5.0 | 0.00 | 0.00 | 0.00 | 79 | 1015.0 |
| 20260831234235 | 69 | 343 | 4.0 | 6.0 | 0.00 | 0.00 | 0.00 | 80 | 1014.9 |
| 20260831233727 | 69 | 333 | 3.0 | 5.0 | 0.00 | 0.00 | 0.00 | 81 | 1015.0 |
| 20260831233307 | 68 | 360 | 3.0 | 6.0 | 0.00 | 0.00 | 0.00 | 82 | 1015.0 |
| 20260831232745 | 68 | 16 | 4.0 | 7.0 | 0.00 | 0.00 | 0.00 | 83 | 1014.9 |
| 20260831232237 | 68 | 338 | 4.0 | 5.0 | 0.00 | 0.00 | 0.00 | 84 | 1014.9 |
| 20260831231735 | 68 | 338 | 2.0 | 4.0 | 0.00 | 0.00 | 0.00 | 84 | 1014.9 |
| 20260831231304 | 68 | 322 | 2.0 | 5.0 | 0.00 | 0.00 | 0.00 | 84 | 1014.8 |
| 20260831230739 | 68 | 321 | 3.0 | 5.0 | 0.00 | 0.00 | 0.00 | 84 | 1014.7 |
| 20260831230251 | 68 | 355 | 3.0 | 5.0 | 0.00 | 0.00 | 0.00 | 85 | 1014.7 |
| 20260831225728 | 69 | 23 | 2.0 | 4.0 | 0.00 | 0.00 | 0.00 | 85 | 1014.8 |
| 20260831225310 | 69 | 305 | 1.0 | 4.0 | 0.00 | 0.00 | 0.00 | 85 | 1014.8 |
| 20260831224742 | 69 | 305 | 1.0 | 5.0 | 0.00 | 0.00 | 0.00 | 85 | 1014.7 |
| 20260831224249 | 69 | 338 | 3.0 | 6.0 | 0.00 | 0.00 | 0.00 | 85 | 1014.6 |
| 20260831223737 | 69 | 336 | 4.0 | 6.0 | 0.00 | 0.00 | 0.00 | 86 | 1014.6 |
| 20260831223224 | 69 | 302 | 1.0 | 5.0 | 0.00 | 0.00 | 0.00 | 86 | 1014.7 |
| 20260831222748 | 69 | 330 | 2.0 | 5.0 | 0.00 | 0.00 | 0.00 | 86 | 1014.6 |
| 20260831222239 | 68 | 335 | 4.0 | 5.0 | 0.00 | 0.00 | 0.00 | 86 | 1014.7 |
| 20260831221737 | 68 | 301 | 2.0 | 4.0 | 0.00 | 0.00 | 0.00 | 86 | 1014.6 |
| 20260831221242 | 68 | 333 | 2.0 | 4.0 | 0.00 | 0.00 | 0.00 | 86 | 1014.7 |
| 20260831220723 | 68 | 322 | 3.0 | 4.0 | 0.00 | 0.00 | 0.00 | 86 | 1014.6 |
| 20260831220246 | 68 | 330 | 1.0 | 3.0 | 0.00 | 0.00 | 0.00 | 85 | 1014.6 |
| 20260831215724 | 68 | 330 | 0.0 | 3.0 | 0.00 | 0.00 | 0.00 | 85 | 1014.7 |
| 20260831215242 | 68 | 330 | 0.0 | 3.0 | 0.00 | 0.00 | 0.00 | 85 | 1014.6 |
| 20260831214747 | 69 | 330 | 1.0 | 3.0 | 0.00 | 0.00 | 0.00 | 85 | 1014.6 |
| 20260831214243 | 69 | 330 | 2.0 | 4.0 | 0.00 | 0.00 | 0.00 | 85 | 1014.4 |
| 20260831213751 | 69 | 330 | 2.0 | 4.0 | 0.00 | 0.00 | 0.00 | 85 | 1014.5 |
| 20260831213227 | 69 | 336 | 2.0 | 4.0 | 0.00 | 0.00 | 0.00 | 84 | 1014.6 |
| 20260831212740 | 69 | 317 | 3.0 | 4.0 | 0.00 | 0.00 | 0.00 | 84 | 1014.5 |
| 20260831212248 | 69 | 327 | 0.0 | 2.0 | 0.00 | 0.00 | 0.00 | 84 | 1014.4 |
| 20260831211743 | 69 | 327 | 0.0 | 1.0 | 0.00 | 0.00 | 0.00 | 84 | 1014.4 |
| 20260831211247 | 69 | 327 | 0.0 | 4.0 | 0.00 | 0.00 | 0.00 | 84 | 1014.4 |
| 20260831210737 | 70 | 327 | 2.0 | 4.0 | 0.00 | 0.00 | 0.00 | 83 | 1014.4 |
| 20260831210226 | 70 | 315 | 0.0 | 4.0 | 0.00 | 0.00 | 0.00 | 83 | 1014.4 |
| 20260831205747 | 70 | 312 | 2.0 | 4.0 | 0.00 | 0.00 | 0.00 | 83 | 1014.4 |
| 20260831205228 | 70 | 304 | 1.0 | 3.0 | 0.00 | 0.00 | 0.00 | 83 | 1014.5 |
| 20260831204800 | 70 | 299 | 2.0 | 3.0 | 0.00 | 0.00 | 0.00 | 83 | 1014.4 |
| 20260831204252 | 70 | 299 | 1.0 | 2.0 | 0.00 | 0.00 | 0.00 | 83 | 1014.4 |
| 20260831203737 | 70 | 299 | 0.0 | 3.0 | 0.00 | 0.00 | 0.00 | 83 | 1014.3 |
| 20260831203228 | 70 | 299 | 1.0 | 3.0 | 0.00 | 0.00 | 0.00 | 83 | 1014.3 |
| 20260831202811 | 70 | 299 | 1.0 | 3.0 | 0.00 | 0.00 | 0.00 | 83 | 1014.3 |
| 20260831202258 | 70 | 299 | 1.0 | 3.0 | 0.00 | 0.00 | 0.00 | 82 | 1014.3 |
| 20260831201751 | 71 | 298 | 0.0 | 0.0 | 0.00 | 0.00 | 0.00 | 82 | 1014.1 |
| 20260831201240 | 71 | 298 | 0.0 | 0.0 | 0.00 | 0.00 | 0.00 | 81 | 1014.2 |
| 20260831200744 | 71 | 298 | 0.0 | 3.0 | 0.00 | 0.00 | 0.00 | 81 | 1014.0 |
| 20260831200225 | 71 | 298 | 0.0 | 3.0 | 0.00 | 0.00 | 0.00 | 81 | 1014.0 |
| 20260831195744 | 71 | 298 | 1.0 | 3.0 | 0.00 | 0.00 | 0.00 | 81 | 1013.9 |
| 20260831195234 | 71 | 298 | 2.0 | 3.0 | 0.00 | 0.00 | 0.00 | 81 | 1013.8 |
| 20260831194726 | 71 | 298 | 0.0 | 0.0 | 0.00 | 0.00 | 0.00 | 81 | 1013.7 |
| 20260831194248 | 71 | 298 | 0.0 | 0.0 | 0.00 | 0.00 | 0.00 | 81 | 1013.8 |
| 20260831193738 | 72 | 298 | 0.0 | 0.0 | 0.00 | 0.00 | 0.00 | 80 | 1013.6 |
| 20260831193239 | 72 | 298 | 0.0 | 0.0 | 0.00 | 0.00 | 0.00 | 80 | 1013.5 |
| 20260831192747 | 72 | 298 | 0.0 | 0.0 | 0.00 | 0.00 | 0.00 | 80 | 1013.5 |
| 20260831192223 | 72 | 298 | 0.0 | 0.0 | 0.00 | 0.00 | 0.00 | 79 | 1013.5 |
| 20260831191740 | 73 | 298 | 0.0 | 0.0 | 0.00 | 0.00 | 0.00 | 79 | 1013.5 |
| 20260831191250 | 73 | 298 | 0.0 | 0.0 | 0.00 | 0.00 | 0.00 | 79 | 1013.5 |
| 20260831190740 | 73 | 298 | 0.0 | 0.0 | 0.00 | 0.00 | 0.00 | 79 | 1013.5 |
| 20260831190224 | 73 | 298 | 0.0 | 0.0 | 0.00 | 0.00 | 0.00 | 78 | 1013.4 |
| 20260831185749 | 73 | 296 | 0.0 | 0.0 | 0.00 | 0.00 | 0.00 | 77 | 1013.4 |
| 20260831185241 | 74 | 296 | 0.0 | 0.0 | 0.00 | 0.00 | 0.00 | 77 | 1013.3 |
| 20260831184724 | 74 | 296 | 0.0 | 0.0 | 0.00 | 0.00 | 0.00 | 77 | 1013.3 |
| 20260831184248 | 75 | 296 | 0.0 | 0.0 | 0.00 | 0.00 | 0.00 | 76 | 1013.2 |
| 20260831183737 | 75 | 296 | 0.0 | 0.0 | 0.00 | 0.00 | 0.00 | 75 | 1013.1 |
| 20260831183232 | 76 | 296 | 0.0 | 0.0 | 0.00 | 0.00 | 0.00 | 75 | 1013.0 |
| 20260831182737 | 76 | 296 | 0.0 | 0.0 | 0.00 | 0.00 | 0.00 | 74 | 1013.1 |
| 20260831182238 | 77 | 296 | 0.0 | 0.0 | 0.00 | 0.00 | 0.00 | 72 | 1012.9 |
| 20260831181738 | 78 | 296 | 0.0 | 0.0 | 0.00 | 0.00 | 0.00 | 71 | 1012.8 |
| 20260831181238 | 79 | 296 | 0.0 | 0.0 | 0.00 | 0.00 | 0.00 | 69 | 1012.9 |
| 20260831180726 | 80 | 296 | 0.0 | 0.0 | 0.00 | 0.00 | 0.00 | 67 | 1012.8 |
| 20260831180237 | 80 | 296 | 0.0 | 0.0 | 0.00 | 0.00 | 0.00 | 67 | 1012.8 |
| 20260831175725 | 81 | 296 | 0.0 | 0.0 | 0.00 | 0.00 | 0.00 | 65 | 1012.8 |
| 20260831175250 | 82 | 296 | 0.0 | 0.0 | 0.00 | 0.00 | 0.00 | 63 | 1012.8 |
| 20260831174741 | 83 | 296 | 0.0 | 3.0 | 0.00 | 0.00 | 0.00 | 62 | 1012.8 |
| 20260831174245 | 83 | 296 | 1.0 | 3.0 | 0.00 | 0.00 | 0.00 | 61 | 1012.7 |
| 20260831173738 | 84 | 295 | 0.0 | 2.0 | 0.00 | 0.00 | 0.00 | 59 | 1012.7 |
| 20260831173250 | 85 | 295 | 1.0 | 3.0 | 0.00 | 0.00 | 0.00 | 59 | 1012.8 |
| 20260831172735 | 86 | 295 | 2.0 | 3.0 | 0.00 | 0.00 | 0.00 | 58 | 1012.8 |
| 20260831172225 | 87 | 263 | 2.0 | 3.0 | 0.00 | 0.00 | 0.00 | 57 | 1012.8 |
| 20260831171748 | 87 | 261 | 2.0 | 3.0 | 0.00 | 0.00 | 0.00 | 57 | 1012.7 |
| 20260831171240 | 87 | 261 | 2.0 | 3.0 | 0.00 | 0.00 | 0.00 | 56 | 1012.7 |
| 20260831170747 | 87 | 248 | 2.0 | 3.0 | 0.00 | 0.00 | 0.00 | 53 | 1012.7 |
| 20260831170228 | 87 | 240 | 1.0 | 3.0 | 0.00 | 0.00 | 0.00 | 52 | 1012.7 |
| 20260831165729 | 88 | 230 | 2.0 | 4.0 | 0.00 | 0.00 | 0.00 | 52 | 1012.7 |
| 20260831165243 | 88 | 234 | 2.0 | 4.0 | 0.00 | 0.00 | 0.00 | 51 | 1012.7 |
| 20260831164742 | 88 | 252 | 1.0 | 5.0 | 0.00 | 0.00 | 0.00 | 51 | 1012.8 |
| 20260831164223 | 88 | 221 | 3.0 | 5.0 | 0.00 | 0.00 | 0.00 | 51 | 1012.8 |
| 20260831163759 | 88 | 215 | 2.0 | 4.0 | 0.00 | 0.00 | 0.00 | 51 | 1012.7 |
| 20260831163247 | 88 | 254 | 3.0 | 5.0 | 0.00 | 0.00 | 0.00 | 51 | 1012.7 |
| 20260831162737 | 88 | 252 | 3.0 | 5.0 | 0.00 | 0.00 | 0.00 | 51 | 1012.8 |
| 20260831162239 | 88 | 247 | 3.0 | 5.0 | 0.00 | 0.00 | 0.00 | 49 | 1012.8 |
| 20260831161727 | 88 | 226 | 3.0 | 5.0 | 0.00 | 0.00 | 0.00 | 52 | 1012.8 |
| 20260831161238 | 88 | 284 | 3.0 | 6.0 | 0.00 | 0.00 | 0.00 | 51 | 1012.9 |
| 20260831160737 | 88 | 257 | 2.0 | 4.0 | 0.00 | 0.00 | 0.00 | 51 | 1013.0 |
| 20260831160225 | 87 | 257 | 2.0 | 4.0 | 0.00 | 0.00 | 0.00 | 53 | 1013.0 |
| 20260831155749 | 87 | 212 | 2.0 | 7.0 | 0.00 | 0.00 | 0.00 | 53 | 1013.0 |
| 20260831155237 | 87 | 233 | 3.0 | 7.0 | 0.00 | 0.00 | 0.00 | 51 | 1012.9 |
| 20260831154725 | 87 | 240 | 4.0 | 8.0 | 0.00 | 0.00 | 0.00 | 51 | 1013.0 |
| 20260831154307 | 88 | 236 | 4.0 | 8.0 | 0.00 | 0.00 | 0.00 | 51 | 1013.1 |
| 20260831153742 | 88 | 244 | 6.0 | 9.0 | 0.00 | 0.00 | 0.00 | 51 | 1013.1 |
| 20260831153247 | 88 | 229 | 5.0 | 9.0 | 0.00 | 0.00 | 0.00 | 53 | 1013.1 |
| 20260831152737 | 87 | 258 | 2.0 | 8.0 | 0.00 | 0.00 | 0.00 | 53 | 1013.1 |
| 20260831152226 | 86 | 263 | 4.0 | 8.0 | 0.00 | 0.00 | 0.00 | 54 | 1013.1 |
| 20260831151750 | 87 | 89 | 2.0 | 7.0 | 0.00 | 0.00 | 0.00 | 52 | 1013.1 |
| 20260831151231 | 87 | 213 | 4.0 | 6.0 | 0.00 | 0.00 | 0.00 | 53 | 1013.2 |
| 20260831150732 | 87 | 248 | 3.0 | 7.0 | 0.00 | 0.00 | 0.00 | 52 | 1013.2 |
| 20260831150224 | 88 | 198 | 2.0 | 7.0 | 0.00 | 0.00 | 0.00 | 53 | 1013.2 |
| 20260831145748 | 88 | 246 | 4.0 | 7.0 | 0.00 | 0.00 | 0.00 | 51 | 1013.3 |
| 20260831145243 | 88 | 267 | 5.0 | 7.0 | 0.00 | 0.00 | 0.00 | 52 | 1013.3 |
| 20260831144750 | 88 | 232 | 3.0 | 7.0 | 0.00 | 0.00 | 0.00 | 52 | 1013.3 |
| 20260831144227 | 88 | 200 | 3.0 | 8.0 | 0.00 | 0.00 | 0.00 | 53 | 1013.3 |
| 20260831143742 | 87 | 223 | 4.0 | 7.0 | 0.00 | 0.00 | 0.00 | 52 | 1013.2 |
| 20260831143243 | 87 | 161 | 3.0 | 8.0 | 0.00 | 0.00 | 0.00 | 52 | 1013.2 |
| 20260831142741 | 87 | 215 | 3.0 | 8.0 | 0.00 | 0.00 | 0.00 | 52 | 1013.2 |
| 20260831142233 | 87 | 254 | 3.0 | 9.0 | 0.00 | 0.00 | 0.00 | 52 | 1013.2 |
| 20260831141724 | 87 | 242 | 5.0 | 9.0 | 0.00 | 0.00 | 0.00 | 51 | 1013.2 |
| 20260831141251 | 87 | 263 | 4.0 | 9.0 | 0.00 | 0.00 | 0.00 | 53 | 1013.2 |
| 20260831140741 | 87 | 245 | 3.0 | 12.0 | 0.00 | 0.00 | 0.00 | 51 | 1013.3 |
| 20260831140249 | 87 | 259 | 8.0 | 12.0 | 0.00 | 0.00 | 0.00 | 50 | 1013.3 |
| 20260831135742 | 88 | 244 | 4.0 | 7.0 | 0.00 | 0.00 | 0.00 | 51 | 1013.3 |
| 20260831135306 | 87 | 159 | 3.0 | 8.0 | 0.00 | 0.00 | 0.00 | 55 | 1013.4 |
| 20260831134723 | 87 | 138 | 4.0 | 8.0 | 0.00 | 0.00 | 0.00 | 53 | 1013.4 |
| 20260831134239 | 87 | 230 | 1.0 | 7.0 | 0.00 | 0.00 | 0.00 | 56 | 1013.3 |
| 20260831133738 | 87 | 174 | 3.0 | 9.0 | 0.00 | 0.00 | 0.00 | 53 | 1013.4 |
| 20260831133237 | 88 | 155 | 3.0 | 10.0 | 0.00 | 0.00 | 0.00 | 52 | 1013.4 |
| 20260831132728 | 87 | 197 | 5.0 | 12.0 | 0.00 | 0.00 | 0.00 | 52 | 1013.4 |
| 20260831132225 | 87 | 149 | 4.0 | 8.0 | 0.00 | 0.00 | 0.00 | 55 | 1013.4 |
| 20260831131740 | 86 | 263 | 1.0 | 7.0 | 0.00 | 0.00 | 0.00 | 53 | 1013.4 |
| 20260831131223 | 86 | 111 | 1.0 | 9.0 | 0.00 | 0.00 | 0.00 | 52 | 1013.5 |
| 20260831130748 | 87 | 221 | 5.0 | 9.0 | 0.00 | 0.00 | 0.00 | 51 | 1013.7 |
| 20260831130255 | 87 | 151 | 3.0 | 9.0 | 0.00 | 0.00 | 0.00 | 52 | 1013.7 |
| 20260831125723 | 87 | 148 | 6.0 | 10.0 | 0.00 | 0.00 | 0.00 | 53 | 1013.7 |
| 20260831125245 | 87 | 162 | 4.0 | 10.0 | 0.00 | 0.00 | 0.00 | 53 | 1013.7 |